Starlink 31675

operational
NORAD ID: 59548 Int'l Des: 2024-074 Owner: SPXS Country: US Constellation: starlink
LEOCIRCULAR

About Starlink 31675

Description loading...

Live Position

Loading 3D Globe...

Upcoming Passes

Altitude History

Altitude vs Time

uPlot chart will show altitude changes over time

Two-Line Element Set

1 59548U 24074Q 26102.41256229 -.00046517 00000-0 -16971-2 0 9991
2 59548 42.9989 152.9102 0001382 273.1382 86.9311 15.27471778111172
Epoch: Apr 12, 2026 • Age: 7 hours

Current Status

Altitude 486.4 km
Velocity 7.63 km/s
Sub-Earth Point 38.17°N, 120.53°E
Launch Date Apr 18, 2024
Age 1.9 years
Type internet

Technical Details

Classification Payload
Mass 730.00 kg
Dry Mass 700.00 kg
Total Mass 730.00 kg
Length 0.30 m
Diameter 4.10 m
Span 29.00 m
Shape Box + pan
Manufacturer SPXS
Bus Type Starlink V2M
Phase Status In Orbit
Owner/State SPXS/US

Large Constellations

Loading constellations...